Home > Weather > Kranj > Past weeks

Flag for Slovenia Past Weather in Kranj, Slovenia — Yesterday and Last 2 Weeks

Now
64 °F

Scattered clouds.


Feels Like: 64 °F
Forecast: 51 / 68 °F
Wind: 7 mph from Northwest

Location: Ljubljana Airport / Brnik

Current Time: May 30, 2016 at 6:29:30 PM

Latest Report: May 30, 2016 at 6:00 PM


Visibility: N/A

Pressure: 29.86 "Hg

Humidity: 78%

Dew Point: 57 °F

Location of KranjLocation

Past Weather in Kranj — Graph

°F

Kranj Temperature Yesterday

Maximum temperature yesterday: 79 °F (at 12:30 PM)
Minimum temperature yesterday: 54 °F (at 5:30 AM)
Average temperature yesterday: 66 °F

High & Low Weather Summary for the Past Weeks

 TemperatureHumidityPressure
High82 °F (May 27, 3:30 PM)100% (May 16, 2:30 AM)30.15 "Hg (May 16, 2:30 AM)
Low37 °F (May 17, 5:00 AM)32% (May 27, 3:30 PM)29.71 "Hg (May 24, 4:00 AM)
Average59 °F73%29.96 "Hg
* Reported May 15 5:00 PM — May 30 5:00 PM, Kranj, Weather by CustomWeather, © 2016

Note: Actual official high and low records may vary slightly from our data, if they occured in-between our weather recording intervals... More about our weather records

Advertising

Kranj Weather History for the Previous 24 Hours

Scroll right to see more
 ConditionsComfort  
Time TempWeatherWind HumidityBarometerVisibility
5:00 PM
Mon, May 30
64 °FBroken clouds.5 mph83%29.86 "HgN/A
4:30 PM64 °FBroken clouds.6 mph83%29.86 "HgN/A
4:00 PM64 °FBroken clouds.2 mph83%29.83 "HgN/A
3:30 PM64 °FBroken clouds.2 mph78%29.83 "HgN/A
3:00 PM63 °FSprinkles. Broken clouds.5 mph88%29.86 "HgN/A
2:00 PM63 °FSprinkles. Broken clouds.7 mph77%29.83 "HgN/A
1:30 PM63 °FThundershowers. Broken clouds.8 mph83%29.83 "HgN/A
1:00 PM63 °FSprinkles. Broken clouds.8 mph83%29.83 "HgN/A
12:30 PM63 °FSprinkles. Broken clouds.6 mph83%29.83 "HgN/A
12:00 PM63 °FSprinkles. Broken clouds.5 mph88%29.83 "HgN/A
11:30 AM64 °FSprinkles. Broken clouds.2 mph78%29.83 "HgN/A
11:00 AM64 °FBroken clouds.3 mph78%29.83 "HgN/A
10:30 AM63 °FBroken clouds.2 mph83%29.83 "HgN/A
10:00 AM63 °FBroken clouds.No wind83%29.83 "HgN/A
9:30 AM61 °FPartly sunny.1 mph88%29.83 "HgN/A
9:00 AM61 °FPartly sunny.2 mph83%29.83 "HgN/A
8:30 AM61 °FBroken clouds.No wind88%29.80 "HgN/A
8:00 AM59 °FBroken clouds.2 mph94%29.80 "HgN/A
7:30 AM59 °FBroken clouds.2 mph88%29.80 "HgN/A
7:00 AM57 °FBroken clouds.1 mph94%29.80 "HgN/A
6:30 AM57 °FPartly sunny.2 mph94%29.80 "HgN/A
6:00 AM57 °FPartly cloudy.No wind94%29.80 "HgN/A
5:30 AM55 °FPartly cloudy.No wind100%29.80 "HgN/A
5:00 AM55 °FPartly cloudy.No wind100%29.80 "HgN/A
4:30 AM57 °FPartly cloudy.1 mph94%29.80 "HgN/A
4:00 AM57 °FPartly cloudy.1 mph94%29.80 "HgN/A
3:30 AM57 °FRain showers. Partly cloudy.2 mph94%29.80 "HgN/A
3:00 AM57 °FRain showers. Partly cloudy.2 mph94%29.80 "HgN/A
2:30 AM57 °FSprinkles. Partly cloudy.5 mph94%29.80 "HgN/A
2:00 AM57 °FSprinkles. Partly cloudy.No wind94%29.80 "HgN/A
1:30 AM57 °FSprinkles. Partly cloudy.1 mph94%29.80 "HgN/A
1:00 AM57 °FSprinkles. Partly cloudy.1 mph94%29.80 "HgN/A
12:30 AM57 °FPartly cloudy.5 mph94%29.80 "HgN/A
12:00 AM57 °FPartly cloudy.2 mph94%29.80 "HgN/A
11:30 PM
Sun, May 29
57 °FPartly cloudy.5 mph94%29.83 "HgN/A
11:00 PM59 °FPartly cloudy.5 mph94%29.83 "HgN/A
10:30 PM61 °FSprinkles. Partly cloudy.2 mph83%29.83 "HgN/A
10:00 PM61 °FSprinkles. Partly cloudy.6 mph94%29.80 "HgN/A
9:30 PM63 °FPartly sunny.5 mph88%29.77 "HgN/A
9:00 PM63 °FScattered clouds.6 mph88%29.77 "HgN/A
8:30 PM64 °FScattered clouds.3 mph83%29.77 "HgN/A
8:00 PM64 °FPartly sunny.2 mph88%29.77 "HgN/A
7:30 PM66 °FPartly sunny.3 mph83%29.80 "HgN/A
7:00 PM64 °FPartly sunny.5 mph83%29.80 "HgN/A
6:30 PM64 °FBroken clouds.6 mph88%29.80 "HgN/A
6:00 PM64 °FLight rain. Broken clouds.3 mph78%29.80 "HgN/A
Weather by CustomWeather, © 2016

See weather overviewHow to use our weather pages